Date String (YYYY-MM-DD hh:mm:ss) UTC,Instrument flags,absolute air pressure of the measurement (hPa),sample flow rate (lpm),inlet stack bypass flow (lpm),air temperature of the measurement (°C),ambient temperature measured by the external sensor (°C),aerosol sample conditioner tube jacket temperature (°C),OPC LED temperature (°C),internal box temperature (°C),relative humidity of the measurement (%),span deviation,mass concentration of particles derived from Lorenz-Mie calculation of OPC scattering (μg/m³),mass concentration of particles derived from Lorenz-Mie calculation of OPC scattering (μg/m³),mass concentration of particles derived from Lorenz-Mie calculation of OPC scattering (μg/m³)
DateTimeUTC,F1_M11,P_M11,Q1_M11,Q2_M11,T1_M11,T2_M11,T3_M11,T4_M11,T5_M11,U1_M11,ZSPAN_M11,X0_M11,X2_M11,X1_M11
2024-02-29 04:00:00,SystemResetWarning,0827.8,5.01,000.00,021.1,020.3,000.0,029.5,022.9,06.6,0000.0,0010.24,0003.63,0001.88
2024-02-29 04:01:00,SystemResetWarning,0827.8,5.01,000.00,021.1,020.3,000.0,029.5,022.9,06.5,0000.0,0010.64,0003.67,0001.90
2024-02-29 04:02:00,SystemResetWarning,0827.8,5.00,000.00,021.1,020.3,000.0,029.5,022.9,06.5,0000.0,0010.07,0003.68,0001.92
2024-02-29 04:03:00,SystemResetWarning,0827.9,4.99,000.00,021.1,020.3,000.0,029.5,022.9,06.5,0000.0,0009.79,0003.65,0001.92
2024-02-29 04:04:00,SystemResetWarning,0827.8,5.00,000.00,021.1,020.3,000.0,029.5,022.9,06.5,0000.0,0009.72,0003.68,0001.93
2024-02-29 04:05:00,SystemResetWarning,0827.7,5.00,000.00,021.1,020.3,000.0,029.5,022.9,06.6,0000.0,0009.68,0003.72,0001.96
2024-02-29 04:06:00,SystemResetWarning,0827.8,5.00,000.00,021.1,020.3,000.0,029.5,022.9,06.6,0000.0,0009.73,0003.72,0001.97
2024-02-29 04:07:00,SystemResetWarning,0827.8,5.00,000.00,021.1,020.3,000.0,029.5,022.9,06.6,0000.0,0010.39,0003.75,0001.97
2024-02-29 04:08:00,SystemResetWarning,0827.8,5.01,000.00,021.1,020.3,000.0,029.5,022.8,06.5,0000.0,0010.31,0003.72,0001.96
2024-02-29 04:09:00,SystemResetWarning,0827.7,5.01,000.00,021.1,020.3,000.0,029.5,022.8,06.5,0000.0,0010.44,0003.77,0001.96
2024-02-29 04:10:00,SystemResetWarning,0827.8,5.00,000.00,021.0,020.3,000.0,029.5,022.8,06.4,0000.0,0010.53,0003.79,0001.96
2024-02-29 04:11:00,SystemResetWarning,0827.8,4.98,000.00,021.0,020.2,000.0,029.5,022.8,06.4,0000.0,0010.32,0003.75,0001.96
2024-02-29 04:12:00,SystemResetWarning,0827.8,5.00,000.00,021.0,020.2,000.0,029.5,022.8,06.4,0000.0,0010.10,0003.73,0001.94
2024-02-29 04:13:00,SystemResetWarning,0827.8,5.01,000.00,021.0,020.2,000.0,029.5,022.7,06.5,0000.0,0009.86,0003.59,0001.92
2024-02-29 04:14:00,SystemResetWarning,0827.7,5.00,000.00,021.0,020.2,000.0,029.5,022.8,06.6,0000.0,0009.87,0003.58,0001.93
2024-02-29 04:15:00,SystemResetWarning,0827.8,5.00,000.00,021.0,020.2,000.0,029.5,022.8,06.6,0000.0,0009.58,0003.58,0001.93
2024-02-29 04:16:00,SystemResetWarning,0827.8,4.99,000.00,021.0,020.2,000.0,029.5,022.8,06.6,0000.0,0009.23,0003.55,0001.92
2024-02-29 04:17:00,SystemResetWarning,0827.8,5.00,000.00,021.0,020.2,000.0,029.5,022.8,06.5,0000.0,0009.17,0003.54,0001.91
2024-02-29 04:18:00,SystemResetWarning,0827.9,5.00,000.00,021.0,020.2,000.0,029.5,022.8,06.4,0000.0,0008.83,0003.56,0001.91
2024-02-29 04:19:00,SystemResetWarning,0827.8,5.01,000.00,021.0,020.2,000.0,029.5,022.8,06.4,0000.0,0008.64,0003.60,0001.92
2024-02-29 04:20:00,SystemResetWarning,0827.8,5.01,000.00,021.0,020.2,000.0,029.5,022.8,06.4,0000.0,0008.69,0003.61,0001.94
2024-02-29 04:21:00,SystemResetWarning,0827.8,4.99,000.00,021.0,020.2,000.0,029.5,022.8,06.4,0000.0,0008.52,0003.55,0001.92
2024-02-29 04:22:00,SystemResetWarning,0827.9,4.99,000.00,021.0,020.2,000.0,029.5,022.8,06.4,0000.0,0008.88,0003.52,0001.91
2024-02-29 04:23:00,SystemResetWarning,0827.8,5.00,000.00,021.0,020.2,000.0,029.5,022.8,06.4,0000.0,0008.84,0003.48,0001.91
2024-02-29 04:24:00,SystemResetWarning,0827.9,4.99,000.00,021.0,020.2,000.0,029.5,022.8,06.4,0000.0,0008.83,0003.53,0001.92
2024-02-29 04:25:00,SystemResetWarning,0827.8,5.01,000.00,021.0,020.2,000.0,029.4,022.8,06.4,0000.0,0009.21,0003.59,0001.93
2024-02-29 04:26:00,SystemResetWarning,0827.7,5.01,000.00,021.0,020.2,000.0,029.4,022.8,06.4,0000.0,0009.94,0003.61,0001.94
2024-02-29 04:27:00,SystemResetWarning,0827.7,5.00,000.00,021.0,020.2,000.0,029.5,022.8,06.3,0000.0,0010.11,0003.63,0001.98
2024-02-29 04:28:00,SystemResetWarning,0827.8,5.00,000.00,021.0,020.2,000.0,029.5,022.8,06.3,0000.0,0010.23,0003.65,0001.98
2024-02-29 04:29:00,SystemResetWarning,0827.8,5.00,000.00,021.0,020.2,000.0,029.4,022.8,06.3,0000.0,0010.17,0003.64,0002.01
2024-02-29 04:30:00,SystemResetWarning,0827.8,5.00,000.00,021.0,020.2,000.0,029.4,022.8,06.3,0000.0,0010.18,0003.63,0002.02
2024-02-29 04:31:00,SystemResetWarning,0827.7,5.00,000.00,021.0,020.2,000.0,029.4,022.8,06.3,0000.0,0010.25,0003.63,0002.01
2024-02-29 04:32:00,SystemResetWarning,0827.7,5.00,000.00,021.0,020.2,000.0,029.4,022.8,06.3,0000.0,0010.23,0003.64,0002.01
2024-02-29 04:33:00,SystemResetWarning,0827.7,5.00,000.00,021.0,020.2,000.0,029.4,022.8,06.3,0000.0,0010.26,0003.72,0002.02
2024-02-29 04:34:00,SystemResetWarning,0827.7,5.01,000.00,021.0,020.2,000.0,029.4,022.8,06.3,0000.0,0010.43,0003.81,0002.03
2024-02-29 04:35:00,SystemResetWarning,0827.8,5.01,000.00,021.0,020.2,000.0,029.4,022.8,06.4,0000.0,0010.47,0003.81,0002.04
2024-02-29 04:36:00,SystemResetWarning,0827.8,4.99,000.00,021.0,020.2,000.0,029.4,022.8,06.4,0000.0,0009.96,0003.80,0002.04
2024-02-29 04:37:00,SystemResetWarning,0827.7,5.00,000.00,021.0,020.2,000.0,029.4,022.8,06.4,0000.0,0009.25,0003.82,0002.05
2024-02-29 04:38:00,SystemResetWarning,0827.7,5.00,000.00,021.0,020.2,000.0,029.4,022.8,06.4,0000.0,0008.97,0003.77,0002.03
2024-02-29 04:39:00,SystemResetWarning,0827.7,4.99,000.00,021.0,020.2,000.0,029.4,022.8,06.3,0000.0,0008.93,0003.76,0002.03
2024-02-29 04:40:00,SystemResetWarning,0827.7,5.01,000.00,021.0,020.2,000.0,029.4,022.8,06.3,0000.0,0009.00,0003.77,0002.00
2024-02-29 04:41:00,SystemResetWarning,0827.8,5.01,000.00,021.0,020.2,000.0,029.5,022.8,06.4,0000.0,0008.92,0003.75,0002.00
2024-02-29 04:42:00,SystemResetWarning,0827.8,5.00,000.00,021.0,020.2,000.0,029.4,022.8,06.4,0000.0,0008.90,0003.76,0002.00
2024-02-29 04:43:00,SystemResetWarning,0827.8,5.00,000.00,021.0,020.3,000.0,029.5,022.8,06.4,0000.0,0008.98,0003.75,0002.01
2024-02-29 04:44:00,SystemResetWarning,0827.8,5.00,000.00,021.0,020.3,000.0,029.4,022.8,06.4,0000.0,0008.74,0003.69,0002.02
2024-02-29 04:45:00,SystemResetWarning,0827.9,5.00,000.00,021.0,020.3,000.0,029.4,022.8,06.4,0000.0,0008.83,0003.63,0002.02
2024-02-29 04:46:00,SystemResetWarning,0827.8,5.00,000.00,021.0,020.3,000.0,029.4,022.8,06.8,0000.0,0008.73,0003.63,0002.02
2024-02-29 04:47:00,SystemResetWarning,0827.8,5.00,000.00,021.0,020.3,000.0,029.4,022.8,06.8,0000.0,0008.94,0003.64,0002.02
2024-02-29 04:48:00,SystemResetWarning,0827.8,5.00,000.00,021.0,020.3,000.0,029.4,022.9,06.9,0000.0,0009.30,0003.65,0002.02
2024-02-29 04:49:00,SystemResetWarning,0827.8,5.00,000.00,021.0,020.3,000.0,029.4,022.8,06.6,0000.0,0009.43,0003.70,0002.03
2024-02-29 04:50:00,SystemResetWarning,0827.8,5.01,000.00,021.0,020.3,000.0,029.4,022.8,06.5,0000.0,0009.41,0003.68,0002.04
2024-02-29 04:51:00,SystemResetWarning,0827.8,5.01,000.00,021.1,020.3,000.0,029.4,022.8,06.4,0000.0,0009.48,0003.69,0002.05
2024-02-29 04:52:00,SystemResetWarning,0827.8,5.00,000.00,021.1,020.3,000.0,029.4,022.9,06.4,0000.0,0009.88,0003.70,0002.05
2024-02-29 04:53:00,SystemResetWarning,0827.7,5.00,000.00,021.1,020.3,000.0,029.4,022.9,06.4,0000.0,0009.90,0003.70,0002.05
2024-02-29 04:54:00,SystemResetWarning,0827.7,5.00,000.00,021.1,020.3,000.0,029.4,022.8,06.6,0000.0,0009.81,0003.70,0002.05
2024-02-29 04:55:00,SystemResetWarning,0827.7,4.99,000.00,021.0,020.3,000.0,029.4,022.8,06.6,0000.0,0009.98,0003.74,0002.06
2024-02-29 04:56:00,SystemResetWarning,0827.7,5.00,000.00,021.0,020.3,000.0,029.4,022.9,06.9,0000.0,0010.28,0003.79,0002.06
2024-02-29 04:57:00,SystemResetWarning,0827.8,5.00,000.00,021.1,020.3,000.0,029.4,022.8,06.8,0000.0,0010.19,0003.78,0002.07
2024-02-29 04:58:00,SystemResetWarning,0827.8,5.01,000.00,021.1,020.3,000.0,029.4,022.8,06.6,0000.0,0010.15,0003.78,0002.08
2024-02-29 04:59:00,SystemResetWarning,0827.8,5.01,000.00,021.1,020.3,000.0,029.4,022.8,06.6,0000.0,0010.17,0003.77,0002.07
